CZ-2F DEB

基本信息
目录编号:
53364
目录名称:
CZ-2F DEB
国际标识:
2022-093H
轨道中心:
EARTH
物体状态:
在轨
发射日期:
2022-08-04 UTC
轨道信息
数据来源: 国际轨道数据
星历时间: 2026-09-03T11:57:37+0800
半长轴: 6871.401km
偏心率: 0.0070083
轨道倾角: 50.046°
近地点辐角: 37.658°
升交点赤经: 162.844°
平近点角: 322.925°
近地点: 445.107km
远地点: 541.421km
周期: 94.477分钟
每日圈数: 15.241751
详细信息
发射场:
JSC
轨道高度:
LEO
数据来源:
AOE Integration Group
参考系:
TEME
时间系统:
UTC
历元类型:
SGP4
2D轨道图
3D轨道图
轨道高度分析图
轨道倾角分析图
轨道综合分析图
查看轨道综合分析图